Location: Añe
(41.0370°N, 4.2946°W)
Time: 22:54:28
(UTC+00:00)

Daily predictions for brighter satellites

Satellite Brightness Start Highest point End
(mag) Time Altitude Azimuth Time Altitude Azimuth Time Altitude Azimuth
CBERS-1 4.0 17:09:33 10° SSE 17:14:39 76° ENE 17:19:46 10° N
NOSS 3-2 (C) 3.2 17:11:20 10° SSW 17:16:04 58° ESE 17:21:36 10° NE
NOSS 3-2 (A) 3.7 17:11:22 10° SW 17:16:10 54° NW 17:21:52 10° NNE
IGS 5A 3.3 17:14:08 10° SSE 17:18:03 72° ENE 17:22:01 10° N
CORIOLIS 4.3 17:13:01 10° SE 17:18:08 51° ENE 17:23:18 10° N
Cosmos 2263 Rocket 3.9 17:16:12 10° NNE 17:18:40 13° NE 17:21:08 10° ENE
SL-16 R/B 2.8 17:12:27 10° NNE 17:18:41 78° WNW 17:24:51 10° SSW
MOS 1 Rocket 4.2 17:18:15 10° SE 17:22:22 29° ENE 17:26:41 10° N
BREEZE M DEB (TANK) 1.9 17:19:59 10° WSW 17:23:15 69° NNW 17:25:17 10° NE
Cosmos 1626 Rocket 3.5 17:20:03 10° N 17:24:23 78° E 17:28:39 10° S
Cosmos 1933 4.3 17:22:41 10° SSE 17:25:53 26° E 17:29:05 10° NNE
GEOS 3 Rocket 4.0 17:21:28 10° NNE 17:26:48 68° NW 17:32:07 10° SW
SJ-12 4.4 17:24:52 10° SE 17:28:13 31° ENE 17:31:36 10° N
Cosmos 1606 Rocket 4.4 17:25:32 10° SSE 17:29:19 29° E 17:33:08 10° NNE
Cosmos 2360 4.3 17:23:50 10° SSW 17:29:33 89° ESE 17:35:19 10° NNE
Cosmos 2084 Rocket 4.5 17:27:46 10° NNW 17:31:16 25° NE 17:34:44 10° E
Thor Agena Rocket 3.5 17:26:11 10° SSE 17:31:24 77° ENE 17:36:35 10° N
Cosmos 2227 Rocket 3.1 17:27:25 10° N 17:32:02 25° NE 17:36:38 10° ESE
BlueWalker 3 1.7 17:28:46 10° NW 17:32:23 65° NE 17:35:59 10° ESE
Meteor 1-28 Rocket 3.9 17:31:47 10° N 17:35:01 47° WNW 17:38:13 10° SSW
Cosmos 1484 Rocket 3.7 17:32:03 10° S 17:35:27 47° W 17:38:52 10° NNW
Cosmos 1544 Rocket 4.0 17:33:57 10° SSW 17:38:18 65° W 17:42:42 10° N
Cosmos 1503 Rocket 4.0 17:34:07 10° S 17:39:20 70° ESE 17:44:32 10° NNE
Cosmos 724 4.4 17:34:36 10° NNW 17:40:32 56° NE 17:46:17 10° SE
COSMO-SKYMED 1 4.0 17:39:14 12° ENE 17:41:10 16° E 17:43:45 10° SE
BREEZE-M DEB (TANK) 4.4 17:39:17 10° NW 17:42:17 31° NNE 17:48:33 13° ENE
IRS-1C 4.1 17:38:02 10° SSE 17:43:15 61° ENE 17:48:31 10° N
Cosmos 405 Rocket 3.8 17:41:17 10° NNW 17:44:20 38° W 17:47:20 10° SSW
Cosmos 1697 Rocket 2.8 17:39:18 10° S 17:44:43 54° ESE 17:50:11 10° NNE
Lacrosse 5 rocket 3.7 17:46:46 10° NNW 17:47:15 10° NNW 17:47:43 10° NNW
Cosmos 1354 Rocket 4.1 17:42:28 10° S 17:47:37 57° ESE 17:52:45 10° NNE
Cosmos 1461 2.9 17:46:39 10° SW 17:50:30 72° WNW 17:54:18 11° NNE
Okean 1-7 Rocket 3.6 17:47:09 10° N 17:51:27 52° E 17:55:41 10° SSE
IRIDIUM 104 4.3 17:47:54 10° N 17:53:09 78° E 17:58:21 10° S
Cosmos 1726 Rocket 4.1 17:50:09 10° SSE 17:54:30 41° E 17:58:51 10° NNE
Cosmos 1777 Rocket 4.4 17:53:13 10° SSW 17:58:26 67° WNW 18:03:40 10° NNE
Gbstr 26 Del rocket 2.7 17:56:03 10° SW 18:00:14 84° NW 18:02:38 21° NE
IRIDIUM 114 4.4 17:57:02 10° N 18:02:17 86° W 18:07:29 10° S
Cosmos 1655 Rocket 4.3 17:56:43 10° N 18:02:39 44° ENE 18:08:31 10° SSE
Cosmos 1602 Rocket 3.7 17:58:24 10° N 18:02:47 76° W 18:07:06 10° S
SKYMED 2 3.9 17:59:43 10° NNE 18:03:54 45° E 18:08:03 10° S
Meteor 1-20 Rocket 4.1 17:59:57 10° N 18:05:26 90° WSW 18:10:54 10° S
CENTAUR R/B 4.5 18:01:38 10° WNW 18:05:54 19° NNW 18:10:50 10° NNE
SMAP 3.7 18:01:36 10° S 18:06:10 58° W 18:10:47 10° NNW
SAR-Lupe-4 3.8 18:04:22 10° S 18:07:54 71° WSW 18:11:27 10° NNW
ERS-1 4.4 18:03:17 10° SSE 18:08:20 86° ENE 18:13:20 10° NNW
YAOGAN 1 3.2 18:04:47 10° SE 18:08:29 30° ENE 18:12:13 10° N
NOSS 2-3 (C) 3.2 18:08:08 10° SSW 18:11:33 48° ESE 18:12:45 32° ENE
Landsat 7 4.1 18:07:00 10° S 18:11:37 67° W 18:16:16 10° NNW
USA 290 3.3 18:12:28 10° NNW 18:15:37 48° WSW 18:18:44 10° S
USA 238 DEB 3.7 18:10:19 10° S 18:16:03 51° ESE 18:19:57 22° NE
USA 238 3.7 18:10:26 10° S 18:16:11 50° ESE 18:20:02 23° NE
Cosmos 1867 3.5 18:14:49 10° NNW 18:20:14 63° NE 18:25:37 10° SE
CZ-2D R/B 4.1 18:19:08 10° S 18:22:06 40° W 18:25:06 10° NNW
ATLAS CENTAUR R/B 2.6 18:19:21 10° NW 18:22:13 31° WSW 18:25:00 10° S
Cosmos 372 Rocket 4.3 18:19:45 10° S 18:24:35 42° ESE 18:26:26 30° ENE
Cosmos-2242 3.5 18:21:12 10° SSE 18:25:03 35° E 18:25:05 35° E
Cosmos 2297 Rocket 2.9 18:19:37 10° NNW 18:25:09 56° WSW 18:30:39 10° S
Aureole 1 Rocket 3.4 18:21:52 10° S 18:25:44 45° E 18:27:16 33° NE
Cosmos 1953 Rocket 3.6 18:21:26 10° N 18:25:47 52° E 18:30:07 10° SSE
IRS-P3 4.4 18:27:47 10° S 18:33:03 68° WSW 18:38:22 10° NNW
ARIANE 5 R/B 3.7 18:29:15 10° S 18:34:01 44° W 18:38:53 10° NNW
Cosmos 990 Rocket 4.3 18:30:09 10° SSW 18:35:12 63° WNW 18:39:47 13° NNE
Cosmos 1825 Rocket 3.8 18:32:13 10° NNW 18:36:32 67° W 18:40:47 10° S
CZ-4C R/B 3.1 18:29:41 10° NW 18:37:04 88° SW 18:46:01 10° SSE
Cosmos 1607 4.4 18:30:56 10° NW 18:37:05 63° WSW 18:43:17 10° SSE
NOAA 6 4.2 18:33:55 10° SE 18:38:46 46° ENE 18:43:38 10° N
BREEZE-M DEB (TANK) 4.2 18:30:11 10° SW 18:38:55 42° SE 18:40:12 35° ESE
USA 81 4.0 18:34:21 10° N 18:39:34 61° E 18:44:45 10° SSE
Cosmos 2219 3.9 18:37:03 10° N 18:41:35 33° NE 18:41:35 33° NE
SPOT 1/Viking Rocket 3.6 18:38:56 10° S 18:44:07 78° WSW 18:49:21 10° NNW
Helios 1A Rocket 3.3 18:45:32 37° S 18:45:32 37° S 18:47:46 10° S
NOSS 2-3 (E) 3.8 18:41:42 10° SW 18:45:17 49° NW 18:46:11 39° N
Cosmos 1980 Rocket 2.1 18:41:33 10° SSW 18:47:13 80° ESE 18:49:48 34° NNE
NOSS 2-3 (D) 3.7 18:43:35 10° SW 18:47:13 52° NW 18:47:59 43° N
Meteor 1-5 Rocket 4.2 18:42:49 10° NNW 18:48:11 78° W 18:53:39 10° S
Cosmos 2058 Rocket 2.9 18:46:24 10° S 18:50:52 80° E 18:51:55 52° NNE
Cosmos 2369 3.8 18:50:01 10° S 18:55:32 52° ESE 18:55:44 51° E
Nadezhda 2 Rocket 4.4 18:50:58 10° N 18:56:59 57° E 19:02:57 10° SSE
Cosmos 2263 Rocket 2.0 18:57:54 10° NNW 19:03:36 73° ENE 19:04:58 52° SE
Cosmos 1553 Rocket 3.8 18:57:48 10° S 19:03:52 72° E 19:06:49 33° NNE
Cosmos 1076 Rocket 4.3 19:01:17 10° NNW 19:05:27 49° W 19:09:37 10° SSW
COSMOS 2455 4.0 19:00:23 10° S 19:03:35 27° SSE 19:03:35 27° SSE
Resurs 1-3 4.4 19:11:28 10° S 19:15:38 49° W 19:19:49 10° NNW
Cosmos 1538 Rocket 4.0 19:10:24 10° NNW 19:15:42 82° WSW 19:16:57 54° S
Cosmos 2227 Rocket 3.0 19:10:54 10° NW 19:16:19 49° WSW 19:21:43 10° S
COSMO-SKYMED 1 3.7 19:15:35 33° NW 19:16:38 39° WNW 19:20:28 10° SW
Meteor 2-2 Rocket 4.4 19:15:38 10° SSW 19:21:16 69° W 19:23:30 37° N
H-2A R/B 3.8 19:27:24 10° SW 19:29:33 22° S 19:29:33 22° S
Cosmos 1898 Rocket 4.4 19:38:53 10° SW 19:43:31 44° WNW 19:43:31 44° WNW
BREEZE-M DEB (TANK) 4.4 20:03:20 10° WNW 20:08:39 86° SSW 20:09:11 81° SSE
